Regional Weather Roundup
Issued by NWS

Home | Current Version | Previous Version | Graphics & Text | Print | Product List | Glossary On
Versions: 1 2 3 4 5 6 7 8 9 10 11 12 13 14 15 16 17 18 19 20 21 22 23 24 25 26 27 28 29 30 31 32 33 34 35 36 37 38 39 40 41 42 43 44 45 46 47 48 49 50
000
ASUS43 KLSX 171307
RWRMO

WEATHER SUMMARY FOR MISSOURI
NATIONAL WEATHER SERVICE SPRINGFIELD MO
800 AM CDT WED SEP 17 2014

NOTE: "FAIR" INDICATES FEW OR NO CLOUDS BELOW 12,000 FEET WITH NO
       SIGNIFICANT WEATHER AND/OR OBSTRUCTIONS TO VISIBILITY.
       CURRENT SKY AND/OR WEATHER CONDITIONS ARE NOT AVAILABLE FOR
       CHILLICOTHE AND FARMINGTON.

MOZ001>031-035>038-043-044-053-054-171400-
...NORTHERN AND WESTERN MISSOURI...

CITY           SKY/WX    TMP DP  RH WIND       PRES   REMARKS
KANSAS CTY INT CLOUDY    63  61  93 SE3       29.93R
KANSAS C DTWN  CLOUDY    64  62  93 NE7       29.93R
LEE`S SUMMIT   CLOUDY    63  62  97 S3        29.94R
ST JOSEPH      CLOUDY    64  59  83 SE3       29.93R
CHILLICOTHE      N/A     60  57  89 SE3       29.98R
KIRKSVILLE     CLOUDY    56  54  93 E5        29.99S FOG

$$
MOZ066>068-077>081-088>096-101>105-171400-
...SOUTHWEST MISSOURI...

CITY           SKY/WX    TMP DP  RH WIND       PRES   REMARKS
SPRINGFIELD    TSTM      66  65  96 SE13      29.93R FOG
JOPLIN         MOSUNNY   71  68  90 SW15      29.94R

$$
MOZ032>034-039>042-045>050-055>058-069>072-171400-
...CENTRAL MISSOURI...

CITY           SKY/WX    TMP DP  RH WIND       PRES   REMARKS
COLUMBIA       CLOUDY   N/A N/A N/A E10       29.99R HAZE
JEFFERSON CITY CLOUDY    59  56  89 E9        29.98S
ROLLA          TSTM      57  55  93 S8        30.00R FOG
SEDALIA        RAIN      63  61  93 SE6       29.95R FOG
WHITEMAN AFB   TSTM      62  62  97 S5        29.94S
OSAGE BEACH    CLOUDY    63  59  88 E3        29.99R

$$
MOZ051-052-059>065-171400-
...EAST CENTRAL MISSOURI...

CITY           SKY/WX    TMP DP  RH WIND       PRES   REMARKS
ST LOUIS INTL  MOSUNNY   58  51  78 SE7       30.02S
SPIRIT OF STL  PTSUNNY   54  52  93 CALM      30.02R
ST CHARLES     SUNNY     55  52  89 E7        30.00F FOG

$$
MOZ072>076-082>087-097>100-106>115-171400-
...SOUTH CENTRAL AND SOUTHEAST MISSOURI...

CITY           SKY/WX    TMP DP  RH WIND       PRES   REMARKS
CAPE GIRARDEAU SUNNY     53  52  96 E3        30.03F FOG
FARMINGTON     CLOUDY    54  50  87 SW3       30.05R
POPLAR BLUFF   CLOUDY    57  51  80 VRB3      30.03R
WEST PLAINS    CLOUDY    62  58  86 SE8       30.02S

$$



USA.gov is the U.S. government's official web portal to all federal, state and local government web resources and services.